Vertical_Velocity
-4 -5 -8 -3 -3 -1 -1 -1 -6 -5 -4 -3 2 -2 -6 1 7 9 11 5 -5 -7
-3 -3 -6 -8 -1 1 -1 -5 -1 -4 -1 2 -4 -6 2 -1 -3 -5 7 -5 2 3
-5 -7 -6 -0 2 -3 -5 -4 -3 -3 -3 7 -12 10 2 -5 14 -3 12 4 -3 5
-1 -4 -3 1 -1 -3 -5 -2 -2 -2 -4 -4 9 0 7 6 -0 -1 7 0 -7 4
-3 -2 0 -1 -2 -3 -3 -2 -2 -3 -3 -4 -5 -15 1 -2 -1 9 6 -1 9 -6
-2 -2 -1 -2 -1 -2 -2 -3 -4 -1 0 5 -1 -16 4 4 4 6 -0 7 -1 -7
-3 -1 -1 -1 -1 -0 -2 -3 -1 7 -11 -7 -2 -4 6 6 0 -2 7 -5 1 -0
-1 -3 -1 1 -1 1 -3 1 -0 4 -6 -9 1 1 -10 -4 -1 -1 -1 -5 2 -1
-0 -1 -0 -1 -2 -0 1 -0 1 1 11 -4 14 -8 -3 -5 -3 -3 1 -1 -4 -2
2 -0 -0 -2 -2 2 1 -1 -3 3 7 1 16 -4 -1 -4 -3 -4 -3 -1 -1 -2
3 0 -1 -1 2 3 2 1 -2 1 -10 -3 -2 -4 -1 -2 -3 -3 -1 -2 -1 -0
1 -2 1 -1 1 -1 -3 1 0 6 4 0 8 -6 -1 -1 -0 -2 -3 -1 -2 -2
-1 -5 0 0 2 -1 -1 -4 -1 3 -7 1 3 -4 0 1 0 -2 -2 -1 -1 2
-4 -4 0 -1 -2 -2 -2 3 -2 -3 -2 1 -2 0 -3 -0 -0 -1 -1 -1 -1 6
Height
1551 1550 1552 1552 1550 1548 1545 1542 1539 1537 1534 1532 1531 1527 1526 1525 1523 1522 1521 1520 1519 1518
1546 1546 1547 1548 1547 1544 1541 1538 1536 1533 1531 1529 1525 1524 1522 1520 1519 1518 1517 1517 1516 1514
1543 1544 1545 1545 1542 1539 1537 1534 1532 1529 1527 1525 1522 1520 1518 1518 1517 1514 1513 1512 1512 1511
1540 1541 1542 1540 1538 1535 1532 1530 1527 1525 1522 1521 1519 1517 1516 1513 1511 1509 1510 1509 1508 1506
1537 1538 1538 1536 1534 1531 1528 1526 1523 1521 1519 1517 1515 1512 1510 1508 1507 1506 1506 1505 1503 1502
1535 1534 1533 1531 1529 1527 1524 1521 1519 1517 1515 1513 1510 1508 1505 1504 1504 1502 1502 1501 1499 1497
1530 1529 1528 1526 1524 1522 1519 1516 1514 1512 1510 1508 1506 1505 1503 1502 1501 1500 1498 1496 1495 1493
1525 1524 1523 1521 1518 1516 1514 1511 1509 1507 1504 1504 1502 1501 1500 1499 1498 1497 1495 1493 1491 1488
1520 1518 1517 1515 1513 1511 1510 1507 1505 1503 1500 1498 1497 1494 1495 1494 1493 1493 1491 1489 1486 1483
1515 1513 1511 1510 1508 1506 1505 1503 1501 1500 1498 1494 1492 1490 1491 1490 1490 1489 1487 1484 1481 1478
1511 1509 1507 1505 1504 1502 1501 1498 1496 1494 1493 1493 1489 1487 1487 1486 1485 1484 1482 1480 1477 1474
1507 1506 1504 1502 1500 1497 1495 1493 1492 1491 1488 1489 1486 1484 1483 1482 1481 1480 1477 1475 1472 1469
1501 1501 1499 1497 1495 1492 1490 1488 1486 1486 1484 1484 1482 1480 1480 1478 1477 1475 1473 1471 1469 1465
1497 1496 1494 1491 1489 1488 1487 1485 1482 1480 1479 1479 1477 1475 1475 1474 1472 1471 1468 1466 1465 1464